This is the latest recevied weather packets stored in our database for station/object K7KAZ. If no packets are shown the sender has not sent any weather packets the latest 10 day(s).
| Time | Temp. | Humidity | Pressure | Rain* | Wind** | Luminosity | Snow |
|---|---|---|---|---|---|---|---|
| 1777846574 | 33.33° C | 17% | 1010.6 hPa | 0 mm | - | 555 W/m² | - |
| 1777846271 | 33.33° C | 18% | 1010.5 hPa | 0 mm | - | 577 W/m² | - |
| 1777845967 | 33.33° C | 18% | 1010.5 hPa | 0 mm | - | 555 W/m² | - |
| 1777845664 | 33.33° C | 18% | 1010.5 hPa | 0 mm | - | 525 W/m² | - |
| 1777845361 | 33.33° C | 18% | 1011 hPa | 0 mm | - | 632 W/m² | - |
| 1777845058 | 32.78° C | 19% | 1010.9 hPa | 0 mm | - | 608 W/m² | - |
| 1777844756 | 32.78° C | 19% | 1010.9 hPa | 0 mm | - | 541 W/m² | - |
| 1777844452 | 33.89° C | 18% | 1010.9 hPa | 0 mm | - | 617 W/m² | - |
| 1777844151 | 33.33° C | 18% | 1011.2 hPa | 0 mm | - | 691 W/m² | - |
| 1777843847 | 32.78° C | 19% | 1011.1 hPa | 0 mm | - | 610 W/m² | - |
| 1777843545 | 32.78° C | 20% | 1011.5 hPa | 0 mm | - | 607 W/m² | - |
| 1777843242 | 32.78° C | 20% | 1011.3 hPa | 0 mm | - | 718 W/m² | - |
| 1777842939 | 32.78° C | 20% | 1011.3 hPa | 0 mm | - | 625 W/m² | - |
| 1777842634 | 32.78° C | 20% | 1011.3 hPa | 0 mm | - | 736 W/m² | - |
| 1777842332 | 32.78° C | 20% | 1011.6 hPa | 0 mm | - | 700 W/m² | - |
| 1777842027 | 32.78° C | 21% | 1011.5 hPa | 0 mm | - | 701 W/m² | - |
| 1777841724 | 32.78° C | 21% | 1011.9 hPa | 0 mm | - | 740 W/m² | - |
| 1777841420 | 32.78° C | 20% | 1011.8 hPa | 0 mm | - | 730 W/m² | - |
| 1777841118 | 32.78° C | 20% | 1011.7 hPa | 0 mm | - | 712 W/m² | - |
| 1777840814 | 32.78° C | 21% | 1011.9 hPa | 0 mm | - | 749 W/m² | - |
| 1777840512 | 32.22° C | 23% | 1011.8 hPa | 0 mm | - | 632 W/m² | - |
| 1777840209 | 32.22° C | 24% | 1012.1 hPa | 0 mm | - | 776 W/m² | - |
| 1777839906 | 31.67° C | 25% | 1012.2 hPa | 0 mm | - | 763 W/m² | - |
| 1777839604 | 31.67° C | 25% | 1012.3 hPa | 0 mm | - | 750 W/m² | - |
| 1777839302 | 32.22° C | 25% | 1012.4 hPa | 0 mm | - | 702 W/m² | - |
* Rain latest hour (hover to see other rain measurements)
** Current wind speed in m/s (hover to see current wind gust speed)